Location: Bittelbronn
(48.4454°N, 8.5870°E)
Time: 20:21:49
(UTC+00:00)

Lacrosse 5 rocket - Pass Details

Date: 23 May 2024
Orbit: 445 x 572 km, 57.0° (Epoch: 16 June)

Event Time Altitude Azimuth Distance (km) Brightness Sun altitude
Rises 01:19:50 0° 304° (NW) 2,734 5.0 -16.1°
Reaches altitude 10° 01:22:07 10° 302° (WNW) 1,819 4.0 -15.9°
Maximum altitude 01:26:12 65° 221° (SW) 586 1.1 -15.6°
Drops below altitude 10° 01:30:05 10° 139° (SE) 1,732 3.7 -15.3°
Sets 01:32:13 0° 137° (SE) 2,591 4.6 -15.1°
